Time,TemperatureF,DewpointF,PressureIn,WindDirection,WindDirectionDegrees,WindSpeedMPH,WindSpeedGustMPH,Humidity,HourlyPrecipIn,Conditions,Clouds,dailyrainin,SoftwareType,DateUTC
2013-02-05 00:00:00,47.5,45.0,30.03,West,262,1.0,1.0,91,0.00,,,0.00,Wunderground v.1.15,2013-02-05 08:00:00,
2013-02-05 00:30:00,47.2,44.7,30.03,WNW,300,1.0,1.0,91,0.00,,,0.00,Wunderground v.1.15,2013-02-05 08:30:00,
2013-02-05 01:00:00,47.2,44.7,30.02,NNW,327,0.0,1.0,91,0.00,,,0.00,Wunderground v.1.15,2013-02-05 09:00:00,
2013-02-05 01:30:00,47.0,44.5,30.02,NE,48,0.0,0.0,91,0.00,,,0.00,Wunderground v.1.15,2013-02-05 09:30:00,
2013-02-05 02:00:00,46.8,44.6,30.01,SSE,162,1.0,1.0,92,0.00,,,0.00,Wunderground v.1.15,2013-02-05 10:00:00,
2013-02-05 02:30:00,46.3,44.9,30.00,NNE,21,0.0,0.0,95,0.00,,,0.00,Wunderground v.1.15,2013-02-05 10:30:00,
2013-02-05 03:00:00,46.1,44.7,30.00,NNW,332,0.0,0.0,95,0.00,,,0.00,Wunderground v.1.15,2013-02-05 11:00:00,
2013-02-05 03:30:00,46.0,44.9,29.99,NNW,332,0.0,0.0,96,0.00,,,0.00,Wunderground v.1.15,2013-02-05 11:30:00,
2013-02-05 04:00:00,45.9,44.8,29.99,NNW,332,0.0,0.0,96,0.00,,,0.00,Wunderground v.1.15,2013-02-05 12:00:00,
2013-02-05 04:30:00,45.7,45.2,29.99,NNW,332,0.0,0.0,98,0.08,,,0.02,Wunderground v.1.15,2013-02-05 12:30:00,
2013-02-05 05:00:00,45.5,45.2,29.98,NNW,332,0.0,0.0,99,0.04,,,0.04,Wunderground v.1.15,2013-02-05 13:00:00,
2013-02-05 05:30:00,45.5,45.5,29.98,NNW,332,0.0,0.0,100,0.06,,,0.08,Wunderground v.1.15,2013-02-05 13:30:00,
2013-02-05 06:00:00,45.7,45.7,29.98,NNE,20,0.0,1.0,100,0.00,,,0.09,Wunderground v.1.15,2013-02-05 14:00:00,
2013-02-05 06:30:00,46.5,46.5,29.99,NW,313,1.0,1.0,100,0.00,,,0.09,Wunderground v.1.15,2013-02-05 14:30:00,
2013-02-05 07:00:00,47.0,47.0,30.00,WNW,285,1.0,3.0,100,0.00,,,0.09,Wunderground v.1.15,2013-02-05 15:00:00,
2013-02-05 07:30:00,47.1,46.8,30.00,WSW,246,1.0,2.0,99,0.00,,,0.09,Wunderground v.1.15,2013-02-05 15:30:00,
2013-02-05 08:00:00,47.2,46.9,30.01,West,280,1.0,3.0,99,0.00,,,0.09,Wunderground v.1.15,2013-02-05 16:00:00,
2013-02-05 08:30:00,47.3,47.0,30.01,SE,131,1.0,1.0,99,0.00,,,0.09,Wunderground v.1.15,2013-02-05 16:30:00,
2013-02-05 09:00:00,48.0,47.7,30.02,NW,325,1.0,1.0,99,0.00,,,0.09,Wunderground v.1.15,2013-02-05 17:00:00,
2013-02-05 09:30:00,48.1,47.6,30.02,NNW,340,1.0,1.0,98,0.00,,,0.09,Wunderground v.1.15,2013-02-05 17:30:00,
2013-02-05 10:00:00,49.1,48.6,30.03,NW,311,1.0,1.0,98,0.00,,,0.09,Wunderground v.1.15,2013-02-05 18:00:00,
2013-02-05 10:30:00,50.4,49.3,30.04,NW,323,1.0,1.0,96,0.00,,,0.09,Wunderground v.1.15,2013-02-05 18:30:00,
2013-02-05 11:00:00,50.0,49.2,30.05,NNW,348,1.0,1.0,97,0.00,,,0.10,Wunderground v.1.15,2013-02-05 19:00:00,
2013-02-05 11:30:00,49.7,48.9,30.05,NNW,332,1.0,1.0,97,0.00,,,0.10,Wunderground v.1.15,2013-02-05 19:30:00,
2013-02-05 12:00:00,50.7,49.3,30.05,NNE,15,1.0,1.0,95,0.00,,,0.10,Wunderground v.1.15,2013-02-05 20:00:00,
2013-02-05 12:30:00,50.8,49.4,30.05,NW,305,1.0,1.0,95,0.00,,,0.10,Wunderground v.1.15,2013-02-05 20:30:00,
2013-02-05 13:00:00,51.0,49.3,30.04,West,272,1.0,1.0,94,0.00,,,0.10,Wunderground v.1.15,2013-02-05 21:00:00,
2013-02-05 13:30:00,51.3,49.3,30.04,SSE,152,1.0,1.0,93,0.00,,,0.10,Wunderground v.1.15,2013-02-05 21:30:00,
2013-02-05 14:00:00,51.8,49.5,30.04,NW,314,0.0,1.0,92,0.00,,,0.10,Wunderground v.1.15,2013-02-05 22:00:00,
2013-02-05 14:30:00,51.6,49.1,30.04,WNW,288,0.0,0.0,91,0.00,,,0.10,Wunderground v.1.15,2013-02-05 22:30:00,
2013-02-05 15:00:00,51.4,49.4,30.05,WSW,252,0.0,0.0,93,0.00,,,0.10,Wunderground v.1.15,2013-02-05 23:00:00,
2013-02-05 15:30:00,51.0,49.3,30.05,SW,229,1.0,1.0,94,0.00,,,0.10,Wunderground v.1.15,2013-02-05 23:30:00,
2013-02-05 16:00:00,49.6,48.8,30.06,NNW,342,1.0,1.0,97,0.00,,,0.13,Wunderground v.1.15,2013-02-06 00:00:00,
2013-02-05 16:30:00,48.8,47.7,30.06,NW,313,0.0,1.0,96,0.00,,,0.13,Wunderground v.1.15,2013-02-06 00:30:00,